Total_Precipitation_Accumulation
0.00 0.00 0.00 0.00 0.00 0.00 0.00 0.00 0.03 0.01 0.01 0.01 0.00 0.00 0.00 0.00 0.00 0.03 0.02 0.02 0.02 0.03 0.00 0.00 0.00 0.00 0.00 0.00 0.00 0.00 0.00 0.00 0.00 0.00 0.00 0.00 0.00 0.00 0.01 0.17 0.89 0.50 0.29 0.20
0.00 0.00 0.00 0.00 0.00 0.00 0.00 0.00 0.00 0.00 0.01 0.00 0.00 0.00 0.00 0.00 0.01 0.08 0.08 0.05 0.03 0.03 0.02 0.00 0.00 0.00 0.00 0.00 0.00 0.00 0.00 0.00 0.00 0.00 0.00 0.00 0.00 0.00 0.03 0.47 0.69 0.39 0.35 0.25
0.00 0.00 0.00 0.00 0.00 0.00 0.00 0.00 0.00 0.00 0.00 0.00 0.00 0.00 0.00 0.01 0.11 0.18 0.05 0.06 0.08 0.04 0.01 0.01 0.00 0.00 0.00 0.00 0.00 0.00 0.00 0.00 0.00 0.00 0.00 0.00 0.07 0.20 0.15 0.35 0.27 0.26 0.20 0.13
0.00 0.00 0.00 0.00 0.00 0.00 0.00 0.00 0.00 0.00 0.00 0.00 0.00 0.00 0.01 0.04 0.10 0.04 0.05 0.09 0.11 0.03 0.02 0.02 0.01 0.00 0.00 0.00 0.00 0.00 0.00 0.00 0.00 0.00 0.00 0.01 0.04 0.10 0.10 0.08 0.11 0.23 0.13 0.06
0.00 0.00 0.00 0.00 0.00 0.00 0.00 0.00 0.00 0.00 0.00 0.00 0.00 0.01 0.00 0.00 0.01 0.11 0.09 0.08 0.06 0.02 0.02 0.01 0.01 0.00 0.00 0.00 0.00 0.00 0.00 0.00 0.00 0.00 0.02 0.03 0.00 0.00 0.04 0.11 0.21 0.28 0.24 0.09
0.00 0.00 0.00 0.00 0.00 0.00 0.00 0.00 0.00 0.00 0.00 0.00 0.00 0.00 0.00 0.00 0.15 0.12 0.06 0.47 0.04 0.00 0.02 0.02 0.01 0.01 0.00 0.01 0.03 0.00 0.00 0.00 0.00 0.00 0.01 0.04 0.03 0.10 0.25 0.30 0.29 0.35 0.43 0.17
0.00 0.00 0.00 0.00 0.00 0.00 0.00 0.00 0.00 0.00 0.00 0.00 0.00 0.00 0.00 0.00 0.03 0.05 0.00 0.02 0.01 0.00 0.01 0.06 0.03 0.00 0.00 0.00 0.00 0.02 0.02 0.00 0.00 0.00 0.00 0.01 0.05 0.07 0.10 0.23 0.23 0.34 0.44 0.17
0.00 0.00 0.00 0.00 0.00 0.00 0.00 0.00 0.00 0.00 0.00 0.00 0.00 0.00 0.00 0.00 0.00 0.00 0.00 0.00 0.06 0.03 0.05 0.05 0.03 0.01 0.01 0.00 0.00 0.01 0.04 0.01 0.01 0.01 0.01 0.00 0.02 0.01 0.03 0.11 0.89 0.55 0.29 0.13
0.00 0.00 0.00 0.00 0.00 0.00 0.00 0.00 0.00 0.00 0.00 0.00 0.00 0.05 0.04 0.01 0.00 0.00 0.00 0.00 0.02 0.12 0.20 0.10 0.07 0.00 0.01 0.01 0.00 0.00 0.02 0.02 0.01 0.02 0.03 0.01 0.00 0.06 0.06 0.14 0.28 0.19 0.27 0.29
0.00 0.00 0.00 0.00 0.00 0.00 0.00 0.00 0.00 0.00 0.00 0.00 0.00 0.01 0.01 0.00 0.00 0.00 0.00 0.02 0.08 0.04 0.13 0.03 0.02 0.00 0.00 0.00 0.00 0.00 0.01 0.03 0.02 0.02 0.03 0.00 0.00 0.11 0.18 0.25 0.31 0.39 0.45 0.53
0.00 0.00 0.00 0.00 0.00 0.00 0.00 0.00 0.00 0.00 0.00 0.00 0.00 0.00 0.00 0.00 0.00 0.00 0.00 0.00 0.01 0.01 0.06 0.01 0.01 0.00 0.01 0.00 0.00 0.00 0.00 0.02 0.02 0.02 0.02 0.00 0.02 0.03 0.18 0.29 0.64 0.45 0.42 0.51
0.00 0.00 0.00 0.00 0.00 0.00 0.00 0.00 0.00 0.00 0.00 0.00 0.00 0.00 0.00 0.00 0.00 0.00 0.00 0.00 0.00 0.00 0.03 0.00 0.00 0.00 0.00 0.00 0.00 0.00 0.00 0.01 0.03 0.01 0.02 0.18 0.21 0.27 0.50 0.67 0.55 0.22 0.32 0.36
0.00 0.00 0.00 0.00 0.00 0.00 0.00 0.00 0.00 0.00 0.00 0.00 0.00 0.00 0.00 0.00 0.00 0.00 0.00 0.00 0.00 0.03 0.01 0.00 0.00 0.00 0.00 0.00 0.00 0.00 0.00 0.00 0.00 0.01 0.10 0.09 0.29 0.61 1.10 1.17 0.43 0.55 0.83 1.37
0.00 0.00 0.00 0.00 0.00 0.00 0.00 0.00 0.00 0.00 0.00 0.00 0.00 0.00 0.00 0.00 0.00 0.01 0.00 0.02 0.07 0.03 0.01 0.00 0.00 0.00 0.00 0.00 0.00 0.00 0.00 0.00 0.03 0.26 0.10 0.06 0.39 0.78 1.71 1.42 0.65 0.77 1.37 2.81
0.00 0.00 0.00 0.00 0.00 0.00 0.00 0.00 0.00 0.00 0.00 0.00 0.00 0.00 0.00 0.00 0.00 0.00 0.00 0.00 0.00 0.00 0.00 0.00 0.00 0.00 0.00 0.00 0.00 0.00 0.00 0.00 0.01 0.17 0.22 0.15 0.50 0.91 1.36 0.99 0.71 1.47 2.64 1.38
0.00 0.00 0.00 0.00 0.00 0.00 0.00 0.00 0.00 0.00 0.00 0.00 0.00 0.00 0.00 0.00 0.00 0.01 0.00 0.00 0.00 0.00 0.00 0.00 0.00 0.00 0.00 0.00 0.00 0.00 0.00 0.00 0.01 0.06 0.20 0.45 0.36 0.55 0.62 0.77 1.59 2.84 1.20 0.33
0.00 0.00 0.00 0.00 0.00 0.00 0.00 0.00 0.00 0.00 0.00 0.00 0.00 0.00 0.00 0.00 0.00 0.00 0.00 0.00 0.00 0.00 0.00 0.00 0.00 0.00 0.00 0.00 0.00 0.00 0.00 0.00 0.01 0.04 0.04 0.19 0.40 0.44 0.27 0.27 0.18 0.13 0.11 0.08
0.00 0.00 0.00 0.00 0.00 0.00 0.00 0.00 0.00 0.00 0.00 0.00 0.00 0.00 0.02 0.01 0.00 0.00 0.00 0.00 0.00 0.00 0.00 0.00 0.00 0.00 0.00 0.00 0.00 0.00 0.00 0.00 0.00 0.00 0.06 0.29 0.16 0.12 0.08 0.04 0.04 0.07 0.06 0.02
0.00 0.00 0.00 0.00 0.00 0.00 0.00 0.00 0.00 0.00 0.00 0.00 0.00 0.00 0.00 0.02 0.00 0.01 0.03 0.01 0.00 0.00 0.00 0.00 0.00 0.00 0.00 0.00 0.00 0.00 0.00 0.00 0.00 0.00 0.08 0.07 0.09 0.10 0.04 0.04 0.06 0.04 0.01 0.00
0.00 0.00 0.00 0.00 0.00 0.00 0.00 0.00 0.00 0.00 0.02 0.08 0.01 0.00 0.00 0.01 0.04 0.08 0.03 0.01 0.04 0.04 0.05 0.04 0.02 0.04 0.01 0.00 0.00 0.00 0.00 0.00 0.00 0.01 0.02 0.11 0.11 0.07 0.10 0.29 0.21 0.13 0.01 0.00
0.00 0.00 0.00 0.00 0.00 0.00 0.00 0.00 0.00 0.00 0.03 0.04 0.08 0.03 0.01 0.01 0.01 0.01 0.01 0.00 0.01 0.08 0.11 0.07 0.05 0.01 0.00 0.00 0.00 0.00 0.00 0.00 0.02 0.07 0.12 0.32 0.40 0.65 0.80 0.73 0.48 0.44 0.26 0.17
0.00 0.00 0.00 0.00 0.00 0.01 0.03 0.03 0.09 0.12 0.13 0.25 0.33 0.23 0.03 0.00 0.01 0.01 0.00 0.00 0.00 0.00 0.02 0.03 0.11 0.05 0.03 0.08 0.04 0.05 0.08 0.18 0.16 0.38 0.61 1.05 1.29 1.30 1.37 1.50 1.67 1.49 0.92 0.63
0.00 0.00 0.00 0.01 0.02 0.09 0.15 0.07 0.10 0.10 0.07 0.04 0.03 0.01 0.00 0.00 0.00 0.00 0.00 0.00 0.00 0.00 0.00 0.17 0.23 0.14 0.12 0.17 0.14 0.15 0.26 0.38 0.51 0.92 1.12 1.10 1.17 1.50 2.01 2.17 2.07 1.65 1.14 0.80
0.00 0.00 0.00 0.00 0.00 0.01 0.09 0.07 0.00 0.00 0.00 0.00 0.00 0.00 0.00 0.00 0.01 0.02 0.00 0.00 0.00 0.00 0.00 0.09 0.19 0.26 0.48 0.47 0.52 0.66 1.02 0.98 0.80 0.74 0.76 0.77 0.91 0.86 0.77 0.70 0.62 0.58 0.75 0.78
0.00 0.00 0.00 0.00 0.00 0.00 0.01 0.03 0.04 0.01 0.00 0.00 0.00 0.00 0.00 0.02 0.02 0.02 0.00 0.02 0.03 0.02 0.05 0.11 0.25 0.82 1.27 1.11 1.01 1.03 1.05 0.91 0.57 0.73 0.57 0.61 0.73 0.83 0.53 0.31 0.35 0.33 0.30 0.25
0.00 0.00 0.00 0.00 0.00 0.00 0.07 0.14 0.05 0.00 0.00 0.00 0.00 0.00 0.02 0.02 0.04 0.01 0.07 0.14 0.14 0.13 0.22 0.33 0.45 0.62 0.73 1.74 1.50 1.34 1.59 1.29 0.86 0.79 1.03 0.91 0.69 0.75 0.89 0.47 0.29 0.28 0.23 0.14